Terminal Aerodrome Forecast
Issued by NWS Twin Cities, MN

Home | Current Version | Previous Version | Text Only | Print | Product List | Glossary On
Versions: 1 2 3 4 5 6 7 8 9 10 11 12 13 14 15 16 17 18 19 20 21 22 23 24
000
FTUS43 KMPX 300255 AAA
TAFMSP
TAF AMD
KMSP 300255Z 3003/3106 11010KT P6SM -RA SCT017 OVC025
     FM300800 06012KT P6SM VCSH OVC022
     FM301600 06014G22KT P6SM OVC030
     FM310000 03010KT P6SM OVC040=

USA.gov is the U.S. government's official web portal to all federal, state and local government web resources and services.